This demonstration page uses our WeatherBlox Daily Observations layout. Learn more.

Left ArrowRight Arrow

39.01783, -85.05884

Hourly Observations for November 23, 2018

Temp ( °F °C ) Dew Point ( °F °C ) Humidity (%) Winds ( mph kmh ) Pressure ( in mb ) Visibility ( mi km ) Precip ( " mm )
12:52 am 00:52 Clear 34 1.1 30 -1.1 85 85 E 8 13 30.30 1026 8 13 0.00 0.00
1:52 am 01:52 Clear 33 0.6 29 -1.7 85 85 ESE 8 13 30.29 1026 8 13 0.00 0.00
2:52 am 02:52 Clear 33 0.6 28 -2.2 82 82 ESE 8 13 30.28 1025 9 14 0.00 0.00
3:52 am 03:52 Clear 32 0 27 -2.8 82 82 ESE 7 11 30.26 1025 9 14 0.00 0.00
4:52 am 04:52 Clear 32 0 27 -2.8 82 82 SE 9 15 30.24 1024 9 14 0.00 0.00
5:52 am 05:52 Clear 31 -0.6 27 -2.8 85 85 SE 13 20 30.24 1024 9 14 0.00 0.00
6:52 am 06:52 Clear 31 -0.6 27 -2.8 85 85 SE 9 15 30.23 1024 9 14 0.00 0.00
7:52 am 07:52 Mostly Sunny 32 0 28 -2.2 85 85 SE 10 17 30.22 1023 8 13 0.00 0.00
8:52 am 08:52 Mostly Sunny 35 1.7 30 -1.1 82 82 SE 12 19 30.22 1023 9 14 0.00 0.00
9:52 am 09:52 Partly Cloudy 41 5 33 0.6 73 73 SE 10 17 30.22 1023 10 16 0.00 0.00
10:52 am 10:52 Partly Cloudy 46 7.8 35 1.7 66 66 SSE 6 9 30.20 1023 10 16 0.00 0.00
11:52 am 11:52 Cloudy 48 8.9 36 2.2 63 63 SSE 7 11 30.16 1022 10 16 0.00 0.00
12:52 pm 12:52 Cloudy 50 10 38 3.3 63 63 SSE 8 13 30.14 1021 10 16 0.00 0.00
1:52 pm 13:52 Cloudy 51 10.6 39 3.9 64 64 SSE 8 13 30.11 1020 10 16 0.00 0.00
2:52 pm 14:52 Cloudy 51 10.6 39 3.9 64 64 SE 12 19 30.07 1018 10 16 0.00 0.00
3:52 pm 15:52 Cloudy 50 10 40 4.4 68 68 SE 13 20 30.05 1018 10 16 0.00 0.00
4:52 pm 16:52 Cloudy 50 10 40 4.4 68 68 SE 14 22 30.03 1017 10 16 0.00 0.00
5:52 pm 17:52 Cloudy 49 9.4 40 4.4 71 71 SE 12 19 30.01 1016 10 16 0.00 0.00
6:52 pm 18:52 Cloudy 49 9.4 40 4.4 71 71 SE 14 22 29.97 1015 10 16 0.00 0.00
7:52 pm 19:52 Cloudy 50 10 39 3.9 66 66 SE 13 20 29.93 1013 10 16 0.00 0.00
8:52 pm 20:52 Cloudy 50 10 39 3.9 66 66 SE 14 22 29.88 1012 10 16 0.00 0.00
9:52 pm 21:52 Cloudy 49 9.4 39 3.9 69 69 SE 12 19 29.86 1011 10 16 0.00 0.03
10:52 pm 22:52 Cloudy with Light Rain 48 8.9 41 5 77 77 SSE 17 28 29.83 1010 6 10 0.01 0.25
11:52 pm 23:52 Cloudy with Rain 46 7.8 44 6.7 93 93 SSE 13 20 29.83 1010 5 8 0.14 3.56

Powered by AerisWeather